This is the latest recevied weather packets stored in our database for station/object N5YHM-13. If no packets are shown the sender has not sent any weather packets the latest 10 day(s).
| Time | Temp. | Humidity | Pressure | Rain* | Wind** | Luminosity | Snow |
|---|---|---|---|---|---|---|---|
| 1787678564 | 30.56° C | 85% | 1018.7 hPa | 0 mm | - | 23 W/m² | - |
| 1787678258 | 30.56° C | 84% | 1019 hPa | 0 mm | - | 26 W/m² | - |
| 1787677953 | 30.56° C | 86% | 1019.2 hPa | 0 mm | - | 26 W/m² | - |
| 1787677648 | 30.56° C | 87% | 1019 hPa | 0 mm | - | 26 W/m² | - |
| 1787677342 | 30° C | 88% | 1019.2 hPa | 0 mm | - | 22 W/m² | - |
| 1787677041 | 30° C | 89% | 1019.2 hPa | 0 mm | - | 21 W/m² | - |
| 1787676737 | 30° C | 87% | 1019 hPa | 0 mm | - | 19 W/m² | - |
| 1787676432 | 30.56° C | 86% | 1019.2 hPa | 0 mm | - | 19 W/m² | - |
| 1787676129 | 31.11° C | 85% | 1019.4 hPa | 0 mm | - | 12 W/m² | - |
| 1787675823 | 30.56° C | 87% | 1019.3 hPa | 0 mm | - | 26 W/m² | - |
| 1787675520 | 30.56° C | 88% | 1019.4 hPa | 0 mm | - | 19 W/m² | - |
| 1787675217 | 30.56° C | 88% | 1019.4 hPa | 0 mm | - | 21 W/m² | - |
| 1787674907 | 30.56° C | 87% | 1019.7 hPa | 0 mm | - | 28 W/m² | - |
| 1787674603 | 30° C | 89% | 1019.4 hPa | 0 mm | - | 26 W/m² | - |
| 1787674298 | 29.44° C | 89% | 1019.4 hPa | 0 mm | - | 21 W/m² | - |
| 1787673993 | 29.44° C | 90% | 1019.6 hPa | 0 mm | - | 26 W/m² | - |
| 1787673687 | 29.44° C | 89% | 1019.5 hPa | 0 mm | - | 22 W/m² | - |
| 1787673381 | 29.44° C | 89% | 1019.5 hPa | 0 mm | - | 16 W/m² | - |
| 1787673075 | 29.44° C | 90% | 1019.4 hPa | 0 mm | - | 25 W/m² | - |
| 1787672769 | 29.44° C | 91% | 1019.7 hPa | 0 mm | - | 22 W/m² | - |
| 1787672465 | 29.44° C | 90% | 1019.7 hPa | 0 mm | - | 17 W/m² | - |
| 1787672164 | 29.44° C | 90% | 1019.7 hPa | 0 mm | - | 21 W/m² | - |
| 1787671859 | 28.89° C | 90% | 1019.8 hPa | 0 mm | - | 13 W/m² | - |
| 1787671555 | 28.89° C | 91% | 1019.7 hPa | 0 mm | - | 13 W/m² | - |
| 1787671250 | 28.89° C | 91% | 1019.8 hPa | 0 mm | - | 16 W/m² | - |
* Rain latest hour (hover to see other rain measurements)
** Current wind speed in m/s (hover to see current wind gust speed)